Location: Natural Bridges National Monument
(37.6093°N, 109.9767°W)
Time: 11:10:07
(UTC-06:00)

Daily predictions for brighter satellites

Satellite Brightness Start Highest point End
(mag) Time Altitude Azimuth Time Altitude Azimuth Time Altitude Azimuth
Cosmos 2221 3.6 21:11:13 10° NNW 21:15:19 46° W 21:19:24 10° SSW
Cosmos 1980 Rocket 3.3 21:11:18 10° NW 21:16:41 46° WSW 21:22:05 10° S
Cosmos 2360 Rocket 3.5 21:12:33 10° N 21:17:09 25° ENE 21:21:45 10° ESE
Cosmos 1500 Rocket 4.0 21:13:09 10° SSE 21:17:14 41° E 21:21:22 10° NNE
SL-16 R/B 2.4 21:11:39 10° NNW 21:17:18 64° ENE 21:22:55 10° SSE
ATLAS CENTAUR R/B 1.7 21:12:54 10° NW 21:17:25 72° WSW 21:21:31 10° SSE
Cosmos 968 Rocket 3.5 21:12:53 10° SSW 21:18:02 80° ESE 21:23:17 10° NNE
Resurs 01 Rocket 4.3 21:15:22 10° SW 21:18:21 17° W 21:21:19 10° NW
In-Cosmos 22 4.3 21:13:29 10° S 21:19:09 65° E 21:24:52 10° NNE
CZ-4 DEB 3.1 21:19:10 10° S 21:22:20 66° W 21:25:33 10° NNW
USA 186 2.7 21:21:13 10° SSW 21:23:24 33° W 21:25:39 10° NNW
FENGYUN 3A 4.2 21:19:19 10° S 21:24:38 61° W 21:30:01 10° NNW
Cosmos 371 Rocket 3.3 21:20:23 10° NNW 21:25:13 80° ENE 21:30:00 10° SSE
deb Chang Zheng 4 3.7 21:22:10 10° NNE 21:26:26 57° E 21:30:41 10° S
Cosmos 1939 Rocket 3.3 21:24:01 10° SSE 21:27:48 45° ENE 21:31:33 10° N
ALOS 3.3 21:24:48 10° S 21:29:16 46° W 21:33:46 10° NNW
Delta 2 Rocket 3.4 21:28:12 10° SW 21:31:36 39° SSE 21:34:47 10° E
Cosmos 1674 3.4 21:29:14 10° SSE 21:32:42 34° E 21:36:13 10° NNE
GPS 2-04 Rocket1 3.9 21:30:01 10° W 21:33:58 32° SSW 21:37:28 12° SE
Tiangong 1 2.7 21:36:33 10° S 21:38:30 16° SE 21:39:15 14° SE
SPOT 5 3.4 21:34:33 11° SE 21:38:35 40° ENE 21:43:00 10° N
Envisat 3.2 21:34:00 10° SSE 21:38:57 55° ENE 21:43:55 10° N
Cosmos 1437 3.8 21:41:55 14° SSE 21:44:08 27° E 21:46:58 10° NNE
Cosmos 1437 Rocket 2.8 21:41:24 10° N 21:45:10 58° E 21:48:31 13° SSE
ERS-1 Rocket 3.2 21:40:32 10° S 21:45:32 74° WSW 21:50:36 10° NNW
Cosmos 1833 4.2 21:40:45 10° S 21:46:24 67° ESE 21:52:03 10° NNE
Cosmos 1515 Rocket 3.5 21:42:33 10° N 21:47:00 84° E 21:51:24 10° S
Meteor 2-2 Rocket 4.4 21:42:57 10° N 21:48:57 72° E 21:54:58 10° SSE
PSLV R/B 3.8 21:48:36 18° SE 21:50:32 38° ENE 21:53:24 10° N
DELTA 2 R/B (1) 3.6 21:46:11 10° WNW 21:51:46 81° N 21:57:08 11° E
H-2A R/B 4.1 21:49:03 10° SSW 21:52:19 23° SE 22:01:25 10° E
AVUM R/B 2.4 21:50:54 10° SSW 21:53:07 77° WNW 21:55:34 10° NNE
Cosmos 1777 Rocket 4.2 21:50:20 10° SSW 21:55:36 78° WNW 22:00:53 10° NNE
Cosmos 2151 3.1 21:55:05 11° S 21:58:56 53° E 22:03:01 10° NNE
Cosmos 405 3.1 21:55:53 10° N 21:59:29 61° E 22:01:51 20° SSE
Nimbus 7 Rocket 4.4 21:53:52 10° NNE 21:59:45 89° WNW 22:05:37 10° SSW
YAOGAN 6 3.4 21:57:57 20° SE 21:59:55 35° ENE 22:03:14 10° N
COSMOS 2428 3.9 21:58:23 10° N 22:03:15 29° ENE 22:06:47 16° ESE
CZ-2C R/B 2.5 22:02:52 11° SW 22:03:52 15° W 22:05:00 10° NW
Cosmos 2266 Rocket 4.0 21:59:08 10° S 22:05:28 87° E 22:11:43 10° N
Cosmos 2315 Rocket 4.3 22:00:07 10° N 22:06:08 50° E 22:10:26 19° SSE
Cosmos 1328 3.9 22:03:43 17° SSE 22:06:36 53° E 22:10:28 10° NNE
Meteor 2-20 Rocket 4.4 22:01:06 10° S 22:07:15 84° E 22:13:26 10° N
Cosmos 304 Rocket 4.0 22:03:00 10° N 22:07:46 57° ENE 22:10:44 22° SE
Cosmos 1151 Rocket 3.0 22:08:01 10° N 22:12:20 89° W 22:15:32 18° S
NOSS 3-1 (C) 3.6 22:07:22 10° S 22:12:53 47° ESE 22:18:52 10° NE
H-2A R/B 3.6 22:10:13 15° ESE 22:12:55 22° ENE 22:16:57 10° NNE
Cosmos 1805 Rocket 4.0 22:10:41 21° SSE 22:13:17 44° E 22:17:31 10° NNE
OE (NEXTSAT) 4.3 22:12:24 10° WNW 22:15:59 82° SSW 22:17:31 32° SE
MetOp-A 4.1 22:15:14 18° SSE 22:19:13 85° ENE 22:24:36 10° NNW
Cosmos 2219 Rocket 3.9 22:15:22 10° N 22:19:22 20° NE 22:22:26 13° E
ARGOS 3.5 22:18:34 23° SE 22:21:42 51° ENE 22:26:55 10° N
Cosmos 2058 2.9 22:22:14 25° SSE 22:24:28 63° E 22:28:32 10° NNE
SPOT 1/Viking Rocket 3.6 22:21:45 24° SSE 22:24:47 65° ENE 22:29:54 10° N
Cosmos 1680 Rocket 3.5 22:21:38 10° NNW 22:26:55 84° ENE 22:29:56 26° SSE
H-2A R/B 3.7 22:25:45 10° SSW 22:29:45 31° W 22:33:48 10° NW
Cosmos 923 Rocket 4.2 22:25:28 10° NNW 22:30:38 67° WSW 22:33:55 22° S
CZ-4 SHROUD 4.3 22:30:10 23° SSW 22:31:42 40° W 22:34:41 10° NNW
SL-14 R/B 3.5 22:32:24 38° SE 22:33:30 50° E 22:37:22 10° NNE
Cosmos 1707 Rocket 3.7 22:29:24 10° N 22:33:41 56° E 22:35:13 36° SE
CZ-4B R/B 3.5 22:28:38 10° NNE 22:33:57 88° WNW 22:38:39 13° SSW
Cosmos 1703 4.4 22:34:08 27° E 22:34:11 27° E 22:37:29 10° NNE
Cosmos 1666 Rocket 3.6 22:33:43 33° SSE 22:35:27 58° E 22:39:49 10° NNE
Terra 3.0 22:34:39 23° E 22:36:10 28° ENE 22:40:11 10° N
Cosmos 2219 3.2 22:30:50 10° SSW 22:36:35 88° WNW 22:42:22 10° NNE
Cosmos 1726 2.6 22:33:12 10° N 22:36:50 42° E 22:37:27 39° ESE
Cosmos 1271 Rocket 3.9 22:34:50 10° NNE 22:38:07 27° ENE 22:38:28 26° E
Cosmos 1898 Rocket 3.6 22:36:30 28° SSE 22:38:57 52° ESE 22:43:59 10° NNE
Cosmos 2150 Rocket 4.2 22:37:36 26° S 22:40:34 56° ESE 22:45:55 10° NNE
DELTA 2 R/B(2) 4.1 22:40:37 10° W 22:42:27 55° N 22:42:28 55° N
Cosmos 1745 Rocket 4.4 22:42:06 30° SE 22:44:38 44° E 22:50:26 10° NNE
Meteor 1-27 4.2 22:39:11 10° N 22:44:53 74° E 22:47:32 33° SSE
Meteor 2-11 Rocket 4.4 22:40:55 10° N 22:47:04 75° E 22:50:09 31° SSE
Cosmos 2322 4.0 22:41:29 10° NNW 22:47:07 61° WSW 22:50:11 27° S
Cosmos 2237 Rocket 3.8 22:43:39 10° N 22:48:05 22° NE 22:50:31 17° E
Cosmos 1470 Rocket 4.5 22:48:55 30° E 22:48:57 30° E 22:52:44 10° NNE
Iridium 2 4.4 22:49:59 37° E 22:49:59 37° E 22:53:31 10° NNE
OAO 2 Rocket 3.8 22:45:20 10° SW 22:50:16 40° SSE 22:50:41 39° SSE
Cosmos 1933 Rocket 4.5 22:50:14 31° E 22:50:21 31° E 22:54:18 10° NNE
Cosmos 2322 Rocket 4.4 22:47:06 10° WNW 22:50:42 18° W 22:54:18 10° SW
IGS 5A 4.4 22:51:10 31° E 22:51:44 33° ENE 22:55:29 10° N
CZ-4 R/B 3.9 22:47:46 10° N 22:52:43 81° WNW 22:55:45 23° SSW
DMSP B5D2-2 4.4 22:49:57 10° NNE 22:54:58 45° E 22:56:03 39° SE
NOAA 11 4.2 22:58:26 33° S 23:00:57 74° WSW 23:06:25 10° NNW
Cosmos 2360 Rocket 3.0 22:55:59 10° NW 23:01:19 44° WSW 23:04:09 25° SSW
Meteor 1-4 Rocket 2.5 23:04:50 10° N 23:08:33 73° ENE 23:08:33 73° ENE
USA 32 3.9 23:07:44 10° N 23:13:01 89° E 23:14:34 48° S
Meteor 2-10 4.3 23:08:00 10° N 23:13:42 68° E 23:15:17 47° SE
Delta 2 Rocket 4.3 23:10:28 10° W 23:12:16 28° WSW 23:12:16 28° WSW
Cosmos 1626 3.2 23:14:53 34° ENE 23:14:53 34° ENE 23:17:32 10° NNE
NOSS 0 Rocket 4.3 23:09:22 10° NNW 23:15:21 50° ENE 23:17:19 37° ESE
NOSS 3-1 (A) 3.5 23:09:51 10° SW 23:15:40 78° WNW 23:22:08 10° NNE
Cosmos 2242 Rocket 3.5 23:11:23 10° N 23:15:51 84° W 23:16:35 62° S
SL-08 RB Rocket 4.4 23:18:54 36° SW 23:20:05 46° W 23:24:25 10° NNW
Cosmos 1300 3.9 23:16:52 10° NNW 23:20:22 34° W 23:21:07 31° WSW
DELTA 2 DEB (DPAF) 4.5 23:20:38 49° SSW 23:21:32 59° WSW 23:25:59 10° NNW
Cosmos 2227 Rocket 2.2 23:24:14 54° SSE 23:25:06 60° ESE 23:30:41 10° NNE
CARTOSAT-1 3.6 23:31:26 67° SW 23:31:42 69° W 23:36:01 10° NNW
Cosmos 1862 Rocket 3.6 23:27:48 10° N 23:31:56 63° ENE 23:31:56 63° ENE
FALCON 9 R/B 3.6 23:08:25 10° W 23:32:34 76° S 23:36:25 30° ESE
Cosmos 2333 Rocket 2.4 23:30:23 10° NNW 23:36:06 62° ENE 23:37:11 52° ESE
ATLAS 2AS CENTAUR R/B 2.9 23:35:30 42° S 23:38:00 62° ESE 23:45:51 10° NE
DELTA 2 R/B (1) 3.9 23:32:46 10° W 23:37:53 47° SW 23:37:53 47° SW
SL-16 R/B 3.6 23:35:23 10° N 23:40:06 26° ENE 23:41:37 23° E
Cosmos 1937 Rocket 4.0 23:38:37 32° SW 23:40:51 57° WNW 23:46:00 10° N
Cosmos 1455 2.7 23:39:32 10° N 23:42:35 56° N 23:42:35 56° N
Cosmos 1869 3.8 23:39:54 10° N 23:43:18 57° NNE 23:43:18 57° NNE
COSMOS 2428 3.6 23:42:21 10° NW 23:47:32 38° WSW 23:48:48 33° SW
H-2A R/B 2.8 23:50:52 40° SW 23:51:57 45° W 23:57:08 10° NNW
Cosmos 2297 Rocket 2.0 23:52:11 70° SE 23:52:29 72° ESE 23:58:09 10° NNE
Cosmos 990 Rocket 4.3 23:53:39 46° WSW 23:54:53 60° WNW 00:00:00 10° N
Lacrosse 4 Rocket 3.3 23:52:10 10° N 23:55:38 22° NE 23:55:56 22° ENE
